AC1EG Weather Reports


time (UTC)temp
C
wind
direction
speed
KPH
gust
KPH
rain 1hr
cm
rain 24hr
cm
rain mn
cm
humidity
%
barometer
mb
20260505124528 5 103 1.6 11.3 0.00 0.05 0.03 83 1013.2
20260505123027 5 128 1.6 8.0 0.00 0.05 0.03 82 1013.2
20260505121533 5 132 0.0 6.4 0.00 0.05 0.03 81 1012.8
20260505120054 5 122 0.0 4.8 0.00 0.05 0.03 82 1012.8
20260505114526 5 103 0.0 4.8 0.00 0.05 0.03 83 1012.8
20260505113027 5 130 0.0 4.8 0.00 0.05 0.03 84 1012.7
20260505111528 5 134 0.0 4.8 0.00 0.05 0.03 85 1012.6
20260505101529 5 190 0.0 1.6 0.00 0.05 0.03 84 1012.4
20260505100028 5 190 0.0 0.0 0.00 0.05 0.03 83 1012.2
20260505094528 6 190 0.0 1.6 0.00 0.05 0.03 84 1012.3
20260505093030 6 125 0.0 3.2 0.00 0.05 0.03 84 1012.1
20260505091529 6 40 0.0 3.2 0.00 0.05 0.03 84 1012.3
20260505090038 6 40 0.0 4.8 0.00 0.05 0.03 84 1012.3
20260505084526 6 40 1.6 4.8 0.00 0.05 0.03 85 1012.8
20260505083029 6 335 0.0 1.6 0.00 0.05 0.03 85 1012.9
20260505081533 6 335 0.0 3.2 0.00 0.05 0.03 85 1013.2
20260505080035 6 335 0.0 3.2 0.00 0.05 0.03 85 1013.3
20260505074527 7 340 1.6 4.8 0.00 0.05 0.03 85 1013.3
20260505073043 7 355 1.6 6.4 0.00 0.05 0.03 84 1013.3
20260505071526 7 22 1.6 8.0 0.03 0.05 0.03 84 1013.5
20260505070026 7 333 1.6 8.0 0.03 0.05 0.03 83 1013.5
20260505064537 7 348 1.6 4.8 0.03 0.05 0.03 82 1013.5
20260505063025 7 324 1.6 6.4 0.03 0.05 0.03 82 1013.6
20260505061540 7 34 3.2 8.0 0.00 0.03 0.00 81 1013.4
20260505060028 7 360 3.2 6.4 0.00 0.03 0.00 79 1013.9
20260505054547 7 325 3.2 8.0 0.00 0.03 0.03 78 1014.0
20260505053030 7 17 1.6 8.0 0.00 0.03 0.03 78 1013.9
20260505051533 7 319 0.0 3.2 0.00 0.03 0.03 77 1014.0
20260505041527 8 327 0.0 4.8 0.00 0.03 0.03 73 1013.1
20260505040030 8 355 0.0 3.2 0.00 0.03 0.03 73 1012.9
20260505034527 8 34 3.2 14.5 0.00 0.03 0.03 73 1012.9
20260505033026 8 360 4.8 14.5 0.00 0.03 0.03 72 1013.1
20260505031541 8 329 3.2 16.1 0.00 0.03 0.03 71 1013.0
20260505030027 8 9 3.2 16.1 0.00 0.03 0.03 72 1012.4
20260505024534 8 9 4.8 14.5 0.00 0.03 0.03 71 1013.0
20260505023030 9 5 4.8 12.9 0.03 0.03 0.03 71 1012.7
20260505021528 9 51 6.4 14.5 0.03 0.03 0.03 69 1012.8
20260505020031 10 11 9.7 24.1 0.03 0.03 0.03 67 1013.3
20260505013029 11 32 1.6 19.3 0.00 0.00 0.00 61 1012.9
20260505011533 12 31 6.4 20.9 0.00 0.00 0.00 50 1012.7
20260505010026 13 205 3.2 12.9 0.00 0.00 0.00 46 1011.9
20260505004542 14 360 3.2 22.5 0.00 0.00 0.00 38 1011.5
20260505003025 15 355 9.7 20.9 0.00 0.00 0.00 36 1010.9
20260505001526 15 315 9.7 22.5 0.00 0.00 0.00 35 1010.6
20260505000042 16 335 9.7 19.3 0.00 0.00 0.00 33 1010.2
20260504234528 17 17 16.1 27.4 0.00 0.00 0.00 33 1010.0
20260504233028 17 22 3.2 14.5 0.00 0.00 0.00 34 1010.3
20260504231525 17 5 3.2 8.0 0.00 0.00 0.00 35 1010.2
20260504230028 16 221 1.6 8.0 0.00 0.00 0.00 38 1010.2
20260504224527 16 190 1.6 11.3 0.00 0.00 0.00 38 1010.2
20260504223026 15 226 1.6 9.7 0.00 0.00 0.00 40 1010.4
20260504221528 15 100 3.2 9.7 0.00 0.00 0.00 39 1010.5
20260504220028 15 219 12.9 22.5 0.00 0.00 0.00 37 1010.3
20260504214529 17 115 9.7 19.3 0.00 0.00 0.00 30 1010.4
20260504213028 18 317 9.7 20.9 0.00 0.00 0.00 23 1009.5
20260504211527 19 321 4.8 12.9 0.00 0.00 0.00 22 1009.4
20260504210026 20 223 1.6 8.0 0.00 0.00 0.00 23 1009.2
20260504204527 20 196 1.6 8.0 0.00 0.00 0.00 21 1009.4
20260504203031 20 243 1.6 6.4 0.00 0.00 0.00 26 1009.8
20260504201529 19 218 3.2 8.0 0.00 0.00 0.00 24 1009.9
20260504200026 19 328 6.4 17.7 0.00 0.00 0.00 20 1010.1
20260504194528 21 273 4.8 16.1 0.00 0.00 0.00 19 1010.2
20260504193028 22 209 3.2 9.7 0.00 0.00 0.00 17 1010.2
20260504191527 23 198 3.2 14.5 0.00 0.00 0.00 16 1010.3
20260504190027 23 225 3.2 16.1 0.00 0.00 0.00 16 1010.7
20260504184526 23 275 1.6 6.4 0.00 0.00 0.00 17 1010.8
20260504183028 23 58 0.0 9.7 0.00 0.00 0.00 18 1011.2
20260504181529 22 331 1.6 9.7 0.00 0.00 0.00 19 1011.6
20260504180029 21 242 0.0 9.7 0.00 0.00 0.00 22 1011.7
20260504174526 20 205 6.4 12.9 0.00 0.00 0.00 24 1011.8
20260504173025 20 198 1.6 12.9 0.00 0.00 0.00 22 1012.0
20260504171528 20 230 3.2 11.3 0.00 0.00 0.00 24 1012.2